Weather Roundup
Issued by NWS

Home | Current Version | Previous Version | Text Only | Print | Product List | Glossary On
Versions: 1 2 3 4 5 6 7 8 9 10 11 12 13 14 15 16 17 18 19 20 21 22 23 24 25 26 27 28 29 30 31 32 33 34 35 36 37 38 39 40 41 42 43 44 45 46 47 48 49 50
000
NZUS93 KARX 030459
HRRWXR

CURRENT HOURLY OBSERVATIONS ACROSS
MUCH OF THE UPPER MISSISSIPPI VALLEY
NATIONAL WEATHER SERVICE LA CROSSE WI
1200 AM CDT FRI JUL 03 2015


...SOUTHEAST MINNESOTA...


CITY           SKY/WX    TMP DP  RH WIND       PRES   REMARKS
ROCHESTER      PTCLDY    61  54  77 S5        30.01R
ROCHESTER/MAYO FAIR      64  56  75 CALM      30.00S
WINONA         PTCLDY    61  59  94 CALM      30.00R
AUSTIN         MOCLDY    63  55  77 CALM      30.00S
ALBERT LEA     PTCLDY    59  57  94 CALM      30.00S
DODGE CENTER   PTCLDY    57  55  94 SE3       30.00S
PRESTON        MOCLDY    60  54  79 CALM      30.01S
OWATONNA       PTCLDY    57  55  94 CALM      30.00R
FARIBAULT      CLEAR     55  54  94 CALM      30.00S
$$

...ELSEWHERE IN MINNESOTA...


CITY           SKY/WX    TMP DP  RH WIND       PRES   REMARKS
MINNEAPOLIS    CLEAR     69  55  60 CALM      29.98F
INTNL FALLS    CLOUDY    68  57  68 SW7       29.87S
DULUTH         PTCLDY    64  54  69 W8        29.94F
RED WING       CLEAR     57  55  94 CALM      29.98S
REDWOOD FALLS  CLEAR     62  54  74 SW3       29.99R
MANKATO        CLEAR     63  54  72 CALM      29.99S
WORTHINGTON    CLEAR     55  48  76 CALM      30.01S
FAIRMONT       CLEAR     57  48  72 CALM      29.99S
$$

...SOUTHWEST WISCONSIN...


CITY           SKY/WX    TMP DP  RH WIND       PRES   REMARKS
LA CROSSE      PTCLDY    61  56  83 E7        29.99S
PRAIRIE DU CHI CLOUDY    58  54  89 E3        29.99S
BOSCOBEL       MOCLDY    54  52  93 CALM      30.00S
LONE ROCK      NOT AVBL
PLATTEVILLE    MOCLDY    58  54  84 NE3       30.00S
FORT MC COY    CLEAR     52  50  94 CALM      30.01F
CAMP DOUGLAS   CLEAR     50  50 100 E1        30.00S
VIROQUA        FAIR      60  52  75 SE5       30.01S
WIS DELLS      PTCLDY    54  51  89 CALM      30.01S
$$

...ELSEWHERE IN WISCONSIN...


CITY           SKY/WX    TMP DP  RH WIND       PRES   REMARKS
MILWAUKEE      MOCLDY    57  46  66 CALM      30.02R
MADISON        MOCLDY    54  47  77 CALM      30.01R
GREEN BAY      CLEAR     55  52  89 S3        30.01S
EAU CLAIRE     NOT AVBL
BLACK RVR FLS  FAIR      51  51 100 CALM      30.00S
MEDFORD        CLEAR     56  52  86 S5        30.02R
WAUSAU         CLEAR     60  52  74 CALM      30.00S
WIS RAPIDS     CLEAR     55  50  83 SE3       30.02S
MARSHFIELD     CLEAR     59  50  72 CALM      30.01S
RICE LAKE      CLEAR     59  56  91 CALM      30.00F
$$

...NORTHEAST IOWA...


CITY           SKY/WX    TMP DP  RH WIND       PRES   REMARKS
DECORAH          N/A    N/A N/A N/A MISG        N/A
MASON CITY     PTCLDY    56  54  93 CALM      30.01S
CHARLES CITY   MOCLDY    61  59  94 E5        30.00S
OELWEIN        MOCLDY    59  55  88 E5        30.00S
$$

...ELSEWHERE IN IOWA...


CITY           SKY/WX    TMP DP  RH WIND       PRES   REMARKS
DES MOINES     MOCLDY    64  55  72 CALM      29.99R
IOWA CITY      CLOUDY    64  55  72 NE5       29.99R
FORT DODGE     PTCLDY    55  52  88 CALM      30.01R
$$

...NORTHERN ILLINOIS...


CITY           SKY/WX    TMP DP  RH WIND       PRES   REMARKS
CHICAGO-OHARE  CLOUDY    57  48  72 N5        30.00S
CHICAGO-MIDWAY CLOUDY    62  51  67 N8        29.99S
MOLINE         CLOUDY    62  58  86 E6        29.97R
ROCKFORD       CLOUDY    60  53  77 E6        30.01R
PEORIA         CLOUDY    68  57  68 NE9       29.95S
$$

NOTE: "FAIR" INDICATES FEW OR NO CLOUDS BELOW 12,000 FEET WITH NO
SIGNIFICANT WEATHER AND/OR OBSTRUCTIONS TO VISIBILITY. WIND
SPEEDS ARE IN MILES-PER-HOUR.



USA.gov is the U.S. government's official web portal to all federal, state and local government web resources and services.